Terminal Aerodrome Forecast
Issued by NWS

Home | Current Version | Previous Version | Text Only | Print | Product List | Glossary On
Versions: 1 2 3 4 5 6 7 8 9 10 11 12 13 14
000
FTUS41 KPBZ 290823 AAA
TAFFKL
TAF AMD
KFKL 290823Z 2908/3006 21003KT 2SM BR BKN250
     FM291300 20003KT P6SM BKN250
     FM291600 21005KT P6SM BKN150
      AMD LTD TO CLD VIS AND WIND=

USA.gov is the U.S. government's official web portal to all federal, state and local government web resources and services.